Year,Month,Day,Hour,Minute,Value (Times are PST for temperature in C)
2011,03,23,00,00,5.10
2011,03,23,00,01,5.10
2011,03,23,00,02,4.90
2011,03,23,00,03,4.90
2011,03,23,00,04,4.90
2011,03,23,00,05,4.90
2011,03,23,00,06,4.90
2011,03,23,00,07,4.90
2011,03,23,00,08,4.90
2011,03,23,00,09,4.90
2011,03,23,00,10,4.90
2011,03,23,00,11,4.90
2011,03,23,00,12,4.80
2011,03,23,00,13,4.80
2011,03,23,00,14,4.80
2011,03,23,00,15,4.80
2011,03,23,00,16,4.70
2011,03,23,00,17,4.70
2011,03,23,00,18,4.60
2011,03,23,00,19,4.60
2011,03,23,00,20,4.60
2011,03,23,00,21,4.60
2011,03,23,00,22,4.50
2011,03,23,00,23,4.50
2011,03,23,00,24,4.50
2011,03,23,00,25,4.50
2011,03,23,00,26,4.40
2011,03,23,00,27,4.40
2011,03,23,00,28,4.40
2011,03,23,00,29,4.30
2011,03,23,00,30,4.30
2011,03,23,00,31,4.20
2011,03,23,00,32,4.20
2011,03,23,00,33,4.20
2011,03,23,00,34,4.20
2011,03,23,00,35,4.20
2011,03,23,00,36,4.20
2011,03,23,00,37,4.20
2011,03,23,00,38,4.10
2011,03,23,00,39,4.10
2011,03,23,00,40,4.00
2011,03,23,00,41,4.00
2011,03,23,00,42,4.00
2011,03,23,00,43,4.00
2011,03,23,00,44,4.00
2011,03,23,00,45,4.00
2011,03,23,00,46,4.00
2011,03,23,00,47,4.00
2011,03,23,00,48,4.00
2011,03,23,00,49,4.00
2011,03,23,00,50,4.00
2011,03,23,00,51,4.00
2011,03,23,00,52,3.90
2011,03,23,00,53,3.90
2011,03,23,00,54,3.90
2011,03,23,00,55,3.90
2011,03,23,00,56,4.00
2011,03,23,00,57,4.00
2011,03,23,00,58,4.00
2011,03,23,00,59,4.00
2011,03,23,01,00,4.00
2011,03,23,01,01,4.00
2011,03,23,01,02,4.00
2011,03,23,01,03,4.00
2011,03,23,01,04,4.00
2011,03,23,01,05,4.00
2011,03,23,01,06,4.00
2011,03,23,01,07,4.00
2011,03,23,01,08,4.00
2011,03,23,01,09,4.00
2011,03,23,01,10,3.90
2011,03,23,01,11,3.90
2011,03,23,01,12,3.90
2011,03,23,01,13,3.90
2011,03,23,01,14,3.90
2011,03,23,01,15,3.80
2011,03,23,01,16,3.80
2011,03,23,01,17,3.80
2011,03,23,01,18,3.80
2011,03,23,01,19,3.80
2011,03,23,01,20,3.80
2011,03,23,01,21,3.80
2011,03,23,01,22,3.80
2011,03,23,01,23,3.80
2011,03,23,01,24,3.80
2011,03,23,01,25,3.80
2011,03,23,01,26,3.80
2011,03,23,01,27,3.80
2011,03,23,01,28,3.80
2011,03,23,01,29,3.80
2011,03,23,01,30,3.70
2011,03,23,01,31,3.70
2011,03,23,01,32,3.70
2011,03,23,01,33,3.70
2011,03,23,01,34,3.70
2011,03,23,01,35,3.70
2011,03,23,01,36,3.80
2011,03,23,01,37,3.80
2011,03,23,01,38,3.80
2011,03,23,01,39,3.80
2011,03,23,01,40,3.80
2011,03,23,01,41,3.80
2011,03,23,01,42,3.90
2011,03,23,01,43,3.90
2011,03,23,01,44,3.90
2011,03,23,01,45,4.00
2011,03,23,01,46,4.00
2011,03,23,01,47,4.00
2011,03,23,01,48,4.00
2011,03,23,01,49,4.00
2011,03,23,01,50,4.10
2011,03,23,01,51,4.10
2011,03,23,01,52,4.10
2011,03,23,01,53,4.10
2011,03,23,01,54,4.10
2011,03,23,01,55,4.10
2011,03,23,01,56,4.10
2011,03,23,01,57,4.10
2011,03,23,01,58,4.10
2011,03,23,01,59,4.10
2011,03,23,02,00,4.10
2011,03,23,02,01,4.10
2011,03,23,02,02,4.20
2011,03,23,02,03,4.20
2011,03,23,02,04,4.20
2011,03,23,02,05,4.20
2011,03,23,02,06,4.20
2011,03,23,02,07,4.20
2011,03,23,02,08,4.20
2011,03,23,02,09,4.20
2011,03,23,02,10,4.10
2011,03,23,02,11,4.10
2011,03,23,02,12,4.10
2011,03,23,02,13,4.10
2011,03,23,02,14,4.10
2011,03,23,02,15,4.10
2011,03,23,02,16,4.10
2011,03,23,02,17,4.10
2011,03,23,02,18,4.10
2011,03,23,02,19,4.10
2011,03,23,02,20,4.10
2011,03,23,02,21,4.10
2011,03,23,02,22,4.10
2011,03,23,02,23,4.00
2011,03,23,02,24,4.00
2011,03,23,02,25,4.00
2011,03,23,02,26,4.00
2011,03,23,02,27,4.00
2011,03,23,02,28,4.10
2011,03,23,02,29,4.10
2011,03,23,02,30,4.20
2011,03,23,02,31,4.20
2011,03,23,02,32,4.20
2011,03,23,02,33,4.20
2011,03,23,02,34,4.20
2011,03,23,02,35,4.20
2011,03,23,02,36,4.20
2011,03,23,02,37,4.20
2011,03,23,02,38,4.30
2011,03,23,02,39,4.30
2011,03,23,02,40,4.20
2011,03,23,02,41,4.20
2011,03,23,02,42,4.20
2011,03,23,02,43,4.20
2011,03,23,02,44,4.20
2011,03,23,02,45,4.30
2011,03,23,02,46,4.30
2011,03,23,02,47,4.30
2011,03,23,02,48,4.30
2011,03,23,02,49,4.30
2011,03,23,02,50,4.30
2011,03,23,02,51,4.30
2011,03,23,02,52,4.40
2011,03,23,02,53,4.40
2011,03,23,02,54,4.40
2011,03,23,02,55,4.40
2011,03,23,02,56,4.40
2011,03,23,02,57,4.40
2011,03,23,02,58,4.40
2011,03,23,02,59,4.40
2011,03,23,03,00,4.40
2011,03,23,03,01,4.50
2011,03,23,03,02,4.50
2011,03,23,03,03,4.50
2011,03,23,03,04,4.60
2011,03,23,03,05,4.60
2011,03,23,03,06,4.60
2011,03,23,03,07,4.60
2011,03,23,03,08,4.60
2011,03,23,03,09,4.60
2011,03,23,03,10,4.60
2011,03,23,03,11,4.70
2011,03,23,03,12,4.70
2011,03,23,03,13,4.70
2011,03,23,03,14,4.70
2011,03,23,03,15,4.60
2011,03,23,03,16,4.60
2011,03,23,03,17,4.60
2011,03,23,03,18,4.50
2011,03,23,03,19,4.50
2011,03,23,03,20,4.50
2011,03,23,03,21,4.50
2011,03,23,03,22,4.40
2011,03,23,03,23,4.50
2011,03,23,03,24,4.50
2011,03,23,03,25,4.50
2011,03,23,03,26,4.50
2011,03,23,03,27,4.50
2011,03,23,03,28,4.50
2011,03,23,03,29,4.40
2011,03,23,03,30,4.40
2011,03,23,03,31,4.40
2011,03,23,03,32,4.40
2011,03,23,03,33,4.40
2011,03,23,03,34,4.40
2011,03,23,03,35,4.40
2011,03,23,03,36,4.40
2011,03,23,03,37,4.40
2011,03,23,03,38,4.40
2011,03,23,03,39,4.40
2011,03,23,03,40,4.40
2011,03,23,03,41,4.40
2011,03,23,03,42,4.40
2011,03,23,03,43,4.40
2011,03,23,03,44,4.30
2011,03,23,03,45,4.40
2011,03,23,03,46,4.40
2011,03,23,03,47,4.40
2011,03,23,03,48,4.50
2011,03,23,03,49,4.60
2011,03,23,03,50,4.60
2011,03,23,03,51,4.60
2011,03,23,03,52,4.60
2011,03,23,03,53,4.60
2011,03,23,03,54,4.70
2011,03,23,03,55,4.70
2011,03,23,03,56,4.80
2011,03,23,03,57,4.80
2011,03,23,03,58,4.80
2011,03,23,03,59,4.90
2011,03,23,04,00,4.90
2011,03,23,04,01,4.90
2011,03,23,04,02,4.90
2011,03,23,04,03,4.90
2011,03,23,04,04,4.90
2011,03,23,04,05,4.90
2011,03,23,04,06,4.90
2011,03,23,04,07,4.90
2011,03,23,04,08,5.00
2011,03,23,04,09,5.10
2011,03,23,04,10,5.10
2011,03,23,04,11,5.10
2011,03,23,04,12,5.10
2011,03,23,04,13,5.10
2011,03,23,04,14,5.10
2011,03,23,04,15,5.10
2011,03,23,04,16,5.10
2011,03,23,04,17,5.10
2011,03,23,04,18,5.10
2011,03,23,04,19,5.20
2011,03,23,04,20,5.10
2011,03,23,04,21,5.10
2011,03,23,04,22,5.10
2011,03,23,04,23,5.10
2011,03,23,04,24,5.10
2011,03,23,04,25,5.10
2011,03,23,04,26,5.10
2011,03,23,04,27,5.10
2011,03,23,04,28,5.10
2011,03,23,04,29,5.10
2011,03,23,04,30,5.10
2011,03,23,04,31,5.00
2011,03,23,04,32,4.90
2011,03,23,04,33,4.90
2011,03,23,04,34,4.90
2011,03,23,04,35,4.90
2011,03,23,04,36,4.90
2011,03,23,04,37,4.90
2011,03,23,04,38,4.90
2011,03,23,04,39,4.90
2011,03,23,04,40,4.90
2011,03,23,04,41,4.90
2011,03,23,04,42,4.90
2011,03,23,04,43,4.90
2011,03,23,04,44,4.90
2011,03,23,04,45,4.90
2011,03,23,04,46,4.90
2011,03,23,04,47,4.90
2011,03,23,04,48,4.90
2011,03,23,04,49,4.90
2011,03,23,04,50,4.90
2011,03,23,04,51,4.90
2011,03,23,04,52,4.90
2011,03,23,04,53,4.90
2011,03,23,04,54,4.90
2011,03,23,04,55,4.90
2011,03,23,04,56,4.90
2011,03,23,04,57,4.90
2011,03,23,04,58,4.90
2011,03,23,04,59,4.90
2011,03,23,05,00,4.90
2011,03,23,05,01,4.90
2011,03,23,05,02,4.90
2011,03,23,05,03,4.90
2011,03,23,05,04,4.90
2011,03,23,05,05,4.90
2011,03,23,05,06,4.90
2011,03,23,05,07,4.90
2011,03,23,05,08,4.90
2011,03,23,05,09,4.90
2011,03,23,05,10,4.90
2011,03,23,05,11,4.90
2011,03,23,05,12,4.90
2011,03,23,05,13,4.90
2011,03,23,05,14,4.90
2011,03,23,05,15,4.90
2011,03,23,05,16,4.90
2011,03,23,05,17,4.90
2011,03,23,05,18,4.90
2011,03,23,05,19,4.90
2011,03,23,05,20,4.90
2011,03,23,05,21,4.90
2011,03,23,05,22,5.00
2011,03,23,05,23,5.10
2011,03,23,05,24,5.10
2011,03,23,05,25,5.10
2011,03,23,05,26,5.10
2011,03,23,05,27,5.10
2011,03,23,05,28,5.10
2011,03,23,05,29,5.10
2011,03,23,05,30,5.10
2011,03,23,05,31,5.10
2011,03,23,05,32,5.10
2011,03,23,05,33,5.10
2011,03,23,05,34,5.10
2011,03,23,05,35,5.10
2011,03,23,05,36,5.10
2011,03,23,05,37,5.10
2011,03,23,05,38,5.10
2011,03,23,05,39,5.10
2011,03,23,05,40,4.90
2011,03,23,05,41,4.90
2011,03,23,05,42,4.90
2011,03,23,05,43,4.90
2011,03,23,05,44,4.90
2011,03,23,05,45,4.90
2011,03,23,05,46,4.90
2011,03,23,05,47,4.90
2011,03,23,05,48,4.90
2011,03,23,05,49,4.90
2011,03,23,05,50,4.90
2011,03,23,05,51,4.90
2011,03,23,05,52,4.90
2011,03,23,05,53,4.90
2011,03,23,05,54,4.90
2011,03,23,05,55,4.90
2011,03,23,05,56,4.90
2011,03,23,05,57,4.90
2011,03,23,05,58,4.90
2011,03,23,05,59,4.90
2011,03,23,06,00,4.90
2011,03,23,06,01,4.90
2011,03,23,06,02,4.90
2011,03,23,06,03,4.90
2011,03,23,06,04,4.90
2011,03,23,06,05,4.90
2011,03,23,06,06,4.80
2011,03,23,06,07,4.80
2011,03,23,06,08,4.80
2011,03,23,06,09,4.80
2011,03,23,06,10,4.80
2011,03,23,06,11,4.80
2011,03,23,06,12,4.80
2011,03,23,06,13,4.80
2011,03,23,06,14,4.80
2011,03,23,06,15,4.80
2011,03,23,06,16,4.80
2011,03,23,06,17,4.80
2011,03,23,06,18,4.80
2011,03,23,06,19,4.80
2011,03,23,06,20,4.80
2011,03,23,06,21,4.80
2011,03,23,06,22,4.80
2011,03,23,06,23,4.80
2011,03,23,06,24,4.80
2011,03,23,06,25,4.80
2011,03,23,06,26,4.70
2011,03,23,06,27,4.70
2011,03,23,06,28,4.70
2011,03,23,06,29,4.70
2011,03,23,06,30,4.70
2011,03,23,06,31,4.70
2011,03,23,06,32,4.80
2011,03,23,06,33,4.80
2011,03,23,06,34,4.80
2011,03,23,06,35,4.80
2011,03,23,06,36,4.80
2011,03,23,06,37,4.80
2011,03,23,06,38,4.90
2011,03,23,06,39,4.90
2011,03,23,06,40,4.90
2011,03,23,06,41,4.90
2011,03,23,06,42,4.90
2011,03,23,06,43,4.90
2011,03,23,06,44,4.90
2011,03,23,06,45,4.90
2011,03,23,06,46,4.90
2011,03,23,06,47,4.90
2011,03,23,06,48,5.00
2011,03,23,06,49,5.10
2011,03,23,06,50,5.10
2011,03,23,06,51,5.10
2011,03,23,06,52,5.10
2011,03,23,06,53,5.10
2011,03,23,06,54,5.10
2011,03,23,06,55,5.10
2011,03,23,06,56,5.20
2011,03,23,06,57,5.20
2011,03,23,06,58,5.20
2011,03,23,06,59,5.20
2011,03,23,07,00,5.20
2011,03,23,07,01,5.20
2011,03,23,07,02,5.20
2011,03,23,07,03,5.20
2011,03,23,07,04,5.30
2011,03,23,07,05,5.30
2011,03,23,07,06,5.30
2011,03,23,07,07,5.30
2011,03,23,07,08,5.30
2011,03,23,07,09,5.30
2011,03,23,07,10,5.30
2011,03,23,07,11,5.30
2011,03,23,07,12,5.20
2011,03,23,07,13,5.20
2011,03,23,07,14,5.20
2011,03,23,07,15,5.20
2011,03,23,07,16,5.20
2011,03,23,07,17,5.20
2011,03,23,07,18,5.20
2011,03,23,07,19,5.10
2011,03,23,07,20,5.10
2011,03,23,07,21,5.10
2011,03,23,07,22,5.10
2011,03,23,07,23,5.10
2011,03,23,07,24,5.10
2011,03,23,07,25,5.10
2011,03,23,07,26,5.10
2011,03,23,07,27,5.10
2011,03,23,07,28,5.10
2011,03,23,07,29,5.10
2011,03,23,07,30,5.10
2011,03,23,07,31,5.10
2011,03,23,07,32,5.10
2011,03,23,07,33,5.10
2011,03,23,07,34,5.10
2011,03,23,07,35,5.10
2011,03,23,07,36,5.10
2011,03,23,07,37,5.10
2011,03,23,07,38,5.10
2011,03,23,07,39,5.10
2011,03,23,07,40,5.10
2011,03,23,07,41,5.10
2011,03,23,07,42,5.20
2011,03,23,07,43,5.20
2011,03,23,07,44,5.20
2011,03,23,07,45,5.20
2011,03,23,07,46,5.30
2011,03,23,07,47,5.30
2011,03,23,07,48,5.30
2011,03,23,07,49,5.30
2011,03,23,07,50,5.30
2011,03,23,07,51,5.30
2011,03,23,07,52,5.40
2011,03,23,07,53,5.40
2011,03,23,07,54,5.50
2011,03,23,07,55,5.50
2011,03,23,07,56,5.50
2011,03,23,07,57,5.60
2011,03,23,07,58,5.60
2011,03,23,07,59,5.70
2011,03,23,08,00,5.70
2011,03,23,08,01,5.70
2011,03,23,08,02,5.70
2011,03,23,08,03,5.70
2011,03,23,08,04,5.70
2011,03,23,08,05,5.70
2011,03,23,08,06,5.70
2011,03,23,08,07,5.70
2011,03,23,08,08,5.70
2011,03,23,08,09,5.70
2011,03,23,08,10,5.60
2011,03,23,08,11,5.60
2011,03,23,08,12,5.60
2011,03,23,08,13,5.60
2011,03,23,08,14,5.60
2011,03,23,08,15,5.70
2011,03,23,08,16,5.70
2011,03,23,08,17,5.70
2011,03,23,08,18,5.70
2011,03,23,08,19,5.70
2011,03,23,08,20,5.70
2011,03,23,08,21,5.70
2011,03,23,08,22,5.70
2011,03,23,08,23,5.70
2011,03,23,08,24,5.70
2011,03,23,08,25,5.70
2011,03,23,08,26,5.70
2011,03,23,08,27,5.70
2011,03,23,08,28,5.80
2011,03,23,08,29,5.80
2011,03,23,08,30,5.90
2011,03,23,08,31,5.90
2011,03,23,08,32,6.00
2011,03,23,08,33,6.00
2011,03,23,08,34,6.00
2011,03,23,08,35,6.10
2011,03,23,08,36,6.10
2011,03,23,08,37,6.10
2011,03,23,08,38,6.20
2011,03,23,08,39,6.20
2011,03,23,08,40,6.20
2011,03,23,08,41,6.20
2011,03,23,08,42,6.20
2011,03,23,08,43,6.20
2011,03,23,08,44,6.20
2011,03,23,08,45,6.20
2011,03,23,08,46,6.20
2011,03,23,08,47,6.20
2011,03,23,08,48,6.10
2011,03,23,08,49,6.10
2011,03,23,08,50,6.10
2011,03,23,08,51,6.10
2011,03,23,08,52,6.00
2011,03,23,08,53,6.00
2011,03,23,08,54,6.00
2011,03,23,08,55,6.00
2011,03,23,08,56,5.90
2011,03,23,08,57,5.90
2011,03,23,08,58,5.90
2011,03,23,08,59,5.90
2011,03,23,09,00,5.90
2011,03,23,09,01,5.90
2011,03,23,09,02,6.00
2011,03,23,09,03,6.00
2011,03,23,09,04,6.10
2011,03,23,09,05,6.10
2011,03,23,09,06,6.20
2011,03,23,09,07,6.20
2011,03,23,09,08,6.30
2011,03,23,09,09,6.30
2011,03,23,09,10,6.40
2011,03,23,09,11,6.40
2011,03,23,09,12,6.40
2011,03,23,09,13,6.50
2011,03,23,09,14,6.60
2011,03,23,09,15,6.60
2011,03,23,09,16,6.60
2011,03,23,09,17,6.70
2011,03,23,09,18,6.70
2011,03,23,09,19,6.70
2011,03,23,09,20,6.80
2011,03,23,09,21,6.80
2011,03,23,09,22,6.80
2011,03,23,09,23,6.80
2011,03,23,09,24,6.80
2011,03,23,09,25,6.80
2011,03,23,09,26,6.80
2011,03,23,09,27,6.80
2011,03,23,09,28,6.80
2011,03,23,09,29,6.90
2011,03,23,09,30,6.90
2011,03,23,09,31,6.90
2011,03,23,09,32,7.00
2011,03,23,09,33,7.00
2011,03,23,09,34,7.00
2011,03,23,09,35,7.00
2011,03,23,09,36,7.00
2011,03,23,09,37,7.00
2011,03,23,09,38,7.10
2011,03,23,09,39,7.10
2011,03,23,09,40,7.20
2011,03,23,09,41,7.20
2011,03,23,09,42,7.30
2011,03,23,09,43,7.30
2011,03,23,09,44,7.30
2011,03,23,09,45,7.30
2011,03,23,09,46,7.30
2011,03,23,09,47,7.40
2011,03,23,09,48,7.50
2011,03,23,09,49,7.50
2011,03,23,09,50,7.50
2011,03,23,09,51,7.60
2011,03,23,09,52,7.60
2011,03,23,09,53,7.60
2011,03,23,09,54,7.70
2011,03,23,09,55,7.60
2011,03,23,09,56,7.70
2011,03,23,09,57,7.80
2011,03,23,09,58,7.80
2011,03,23,09,59,7.80
2011,03,23,10,00,7.90
2011,03,23,10,01,8.00
2011,03,23,10,02,8.00
2011,03,23,10,03,8.00
2011,03,23,10,04,8.10
2011,03,23,10,05,8.10
2011,03,23,10,06,8.20
2011,03,23,10,07,8.20
2011,03,23,10,08,8.30
2011,03,23,10,09,8.40
2011,03,23,10,10,8.50
2011,03,23,10,11,8.50
2011,03,23,10,12,8.50
2011,03,23,10,13,8.40
2011,03,23,10,14,8.40
2011,03,23,10,15,8.40
2011,03,23,10,16,8.50
2011,03,23,10,17,8.50
2011,03,23,10,18,8.50
2011,03,23,10,19,8.50
2011,03,23,10,20,8.40
2011,03,23,10,21,8.50
2011,03,23,10,22,8.60
2011,03,23,10,23,8.70
2011,03,23,10,24,8.70
2011,03,23,10,25,8.70
2011,03,23,10,26,8.80
2011,03,23,10,27,8.90
2011,03,23,10,28,8.90
2011,03,23,10,29,9.00
2011,03,23,10,30,9.00
2011,03,23,10,31,9.00
2011,03,23,10,32,9.00
2011,03,23,10,33,9.10
2011,03,23,10,34,9.10
2011,03,23,10,35,9.10
2011,03,23,10,36,9.10
2011,03,23,10,37,9.10
2011,03,23,10,38,9.10
2011,03,23,10,39,9.10
2011,03,23,10,40,9.10
2011,03,23,10,41,9.00
2011,03,23,10,42,9.10
2011,03,23,10,43,9.10
2011,03,23,10,44,9.10
2011,03,23,10,45,9.10
2011,03,23,10,46,9.10
2011,03,23,10,47,9.00
2011,03,23,10,48,9.00
2011,03,23,10,49,9.00
2011,03,23,10,50,9.00
2011,03,23,10,51,9.10
2011,03,23,10,52,9.10
2011,03,23,10,53,9.10
2011,03,23,10,54,9.10
2011,03,23,10,55,9.10
2011,03,23,10,56,9.20
2011,03,23,10,57,9.20
2011,03,23,10,58,9.20
2011,03,23,10,59,9.10
2011,03,23,11,00,9.10
2011,03,23,11,01,9.10
2011,03,23,11,02,9.10
2011,03,23,11,03,9.10
2011,03,23,11,04,9.10
2011,03,23,11,05,9.10
2011,03,23,11,06,9.20
2011,03,23,11,07,9.30
2011,03,23,11,08,9.40
2011,03,23,11,09,9.50
2011,03,23,11,10,9.50
2011,03,23,11,11,9.50
2011,03,23,11,12,9.50
2011,03,23,11,13,9.50
2011,03,23,11,14,9.50
2011,03,23,11,15,9.40
2011,03,23,11,16,9.40
2011,03,23,11,17,9.40
2011,03,23,11,18,9.30
2011,03,23,11,19,9.30
2011,03,23,11,20,9.40
2011,03,23,11,21,9.50
2011,03,23,11,22,9.50
2011,03,23,11,23,9.40
2011,03,23,11,24,9.40
2011,03,23,11,25,9.30
2011,03,23,11,26,9.40
2011,03,23,11,27,9.40
2011,03,23,11,28,9.50
2011,03,23,11,29,9.50
2011,03,23,11,30,9.50
2011,03,23,11,31,9.60
2011,03,23,11,32,9.60
2011,03,23,11,33,9.60
2011,03,23,11,34,9.60
2011,03,23,11,35,9.50
2011,03,23,11,36,9.50
2011,03,23,11,37,9.50
2011,03,23,11,38,9.60
2011,03,23,11,39,9.70
2011,03,23,11,40,9.70
2011,03,23,11,41,9.70
2011,03,23,11,42,9.70
2011,03,23,11,43,9.80
2011,03,23,11,44,9.80
2011,03,23,11,45,9.90
2011,03,23,11,46,9.90
2011,03,23,11,47,9.90
2011,03,23,11,48,9.90
2011,03,23,11,49,9.90
2011,03,23,11,50,10.00
2011,03,23,11,51,10.10
2011,03,23,11,52,10.10
2011,03,23,11,53,10.10
2011,03,23,11,54,9.90
2011,03,23,11,55,10.00
2011,03,23,11,56,10.10
2011,03,23,11,57,10.10
2011,03,23,11,58,10.10
2011,03,23,11,59,10.10
2011,03,23,12,00,9.90
2011,03,23,12,01,9.90
2011,03,23,12,02,9.90
2011,03,23,12,03,9.90
2011,03,23,12,04,10.00
2011,03,23,12,05,10.10
2011,03,23,12,06,10.10
2011,03,23,12,07,10.10
2011,03,23,12,08,10.10
2011,03,23,12,09,10.10
2011,03,23,12,10,10.10
2011,03,23,12,11,10.10
2011,03,23,12,12,10.20
2011,03,23,12,13,10.20
2011,03,23,12,14,10.10
2011,03,23,12,15,10.10
2011,03,23,12,16,10.10
2011,03,23,12,17,10.10
2011,03,23,12,18,10.10
2011,03,23,12,19,10.10
2011,03,23,12,20,10.10
2011,03,23,12,21,10.10
2011,03,23,12,22,10.10
2011,03,23,12,23,10.20
2011,03,23,12,24,10.30
2011,03,23,12,25,10.30
2011,03,23,12,26,10.40
2011,03,23,12,27,10.40
2011,03,23,12,28,10.40
2011,03,23,12,29,10.40
2011,03,23,12,30,10.40
2011,03,23,12,31,10.40
2011,03,23,12,32,10.50
2011,03,23,12,33,10.60
2011,03,23,12,34,10.60
2011,03,23,12,35,10.60
2011,03,23,12,36,10.60
2011,03,23,12,37,10.70
2011,03,23,12,38,10.80
2011,03,23,12,39,10.90
2011,03,23,12,40,10.90
2011,03,23,12,41,10.90
2011,03,23,12,42,10.80
2011,03,23,12,43,10.80
2011,03,23,12,44,10.90
2011,03,23,12,45,10.90
2011,03,23,12,46,10.80
2011,03,23,12,47,10.80
2011,03,23,12,48,10.80
2011,03,23,12,49,10.80
2011,03,23,12,50,10.80
2011,03,23,12,51,10.90
2011,03,23,12,52,10.90
2011,03,23,12,53,10.90
2011,03,23,12,54,10.90
2011,03,23,12,55,10.80
2011,03,23,12,56,10.80
2011,03,23,12,57,10.90
2011,03,23,12,58,10.90
2011,03,23,12,59,10.90
2011,03,23,13,00,10.90
2011,03,23,13,01,11.00
2011,03,23,13,02,11.10
2011,03,23,13,03,11.10
2011,03,23,13,04,11.10
2011,03,23,13,05,11.10
2011,03,23,13,06,11.10
2011,03,23,13,07,11.10
2011,03,23,13,08,11.10
2011,03,23,13,09,11.10
2011,03,23,13,10,11.10
2011,03,23,13,11,11.10
2011,03,23,13,12,11.10
2011,03,23,13,13,11.10
2011,03,23,13,14,11.10
2011,03,23,13,15,11.10
2011,03,23,13,16,11.20
2011,03,23,13,17,11.20
2011,03,23,13,18,11.30
2011,03,23,13,19,11.20
2011,03,23,13,20,11.20
2011,03,23,13,21,11.20
2011,03,23,13,22,11.20
2011,03,23,13,23,11.30
2011,03,23,13,24,11.40
2011,03,23,13,25,11.40
2011,03,23,13,26,11.60
2011,03,23,13,27,11.80
2011,03,23,13,28,11.90
2011,03,23,13,29,12.00
2011,03,23,13,30,12.00
2011,03,23,13,31,11.90
2011,03,23,13,32,11.80
2011,03,23,13,33,11.70
2011,03,23,13,34,11.60
2011,03,23,13,35,11.60
2011,03,23,13,36,11.50
2011,03,23,13,37,11.40
2011,03,23,13,38,11.40
2011,03,23,13,39,11.40
2011,03,23,13,40,11.40
2011,03,23,13,41,11.40
2011,03,23,13,42,11.40
2011,03,23,13,43,11.40
2011,03,23,13,44,11.40
2011,03,23,13,45,11.50
2011,03,23,13,46,11.60
2011,03,23,13,47,11.70
2011,03,23,13,48,11.70
2011,03,23,13,49,11.80
2011,03,23,13,50,11.80
2011,03,23,13,51,11.80
2011,03,23,13,52,11.90
2011,03,23,13,53,11.90
2011,03,23,13,54,11.90
2011,03,23,13,55,12.00
2011,03,23,13,56,11.90
2011,03,23,13,57,11.80
2011,03,23,13,58,11.80
2011,03,23,13,59,11.70
2011,03,23,14,00,11.80
2011,03,23,14,01,11.80
2011,03,23,14,02,11.90
2011,03,23,14,03,12.00
2011,03,23,14,04,12.10
2011,03,23,14,05,12.20
2011,03,23,14,06,12.30
2011,03,23,14,07,12.30
2011,03,23,14,08,12.20
2011,03,23,14,09,12.10
2011,03,23,14,10,12.10
2011,03,23,14,11,12.10
2011,03,23,14,12,12.10
2011,03,23,14,13,12.10
2011,03,23,14,14,12.10
2011,03,23,14,15,12.20
2011,03,23,14,16,12.20
2011,03,23,14,17,12.30
2011,03,23,14,18,12.30
2011,03,23,14,19,12.30
2011,03,23,14,20,12.30
2011,03,23,14,21,12.30
2011,03,23,14,22,12.40
2011,03,23,14,23,12.30
2011,03,23,14,24,12.20
2011,03,23,14,25,12.10
2011,03,23,14,26,12.00
2011,03,23,14,27,11.90
2011,03,23,14,28,11.80
2011,03,23,14,29,11.90
2011,03,23,14,30,11.90
2011,03,23,14,31,11.90
2011,03,23,14,32,12.10
2011,03,23,14,33,12.20
2011,03,23,14,34,12.20
2011,03,23,14,35,12.20
2011,03,23,14,36,12.20
2011,03,23,14,37,12.20
2011,03,23,14,38,12.20
2011,03,23,14,39,12.10
2011,03,23,14,40,12.10
2011,03,23,14,41,12.10
2011,03,23,14,42,12.00
2011,03,23,14,43,12.10
2011,03,23,14,44,12.20
2011,03,23,14,45,12.30
2011,03,23,14,46,12.30
2011,03,23,14,47,12.30
2011,03,23,14,48,12.30
2011,03,23,14,49,12.30
2011,03,23,14,50,12.20
2011,03,23,14,51,12.10
2011,03,23,14,52,12.10
2011,03,23,14,53,12.10
2011,03,23,14,54,12.20
2011,03,23,14,55,12.30
2011,03,23,14,56,12.30
2011,03,23,14,57,12.30
2011,03,23,14,58,12.30
2011,03,23,14,59,12.30
2011,03,23,15,00,12.30
2011,03,23,15,01,12.30
2011,03,23,15,02,12.30
2011,03,23,15,03,12.20
2011,03,23,15,04,12.30
2011,03,23,15,05,12.30
2011,03,23,15,06,12.30
2011,03,23,15,07,12.40
2011,03,23,15,08,12.40
2011,03,23,15,09,12.30
2011,03,23,15,10,12.40
2011,03,23,15,11,12.50
2011,03,23,15,12,12.50
2011,03,23,15,13,12.50
2011,03,23,15,14,12.50
2011,03,23,15,15,12.50
2011,03,23,15,16,12.60
2011,03,23,15,17,12.60
2011,03,23,15,18,12.70
2011,03,23,15,19,12.80
2011,03,23,15,20,12.80
2011,03,23,15,21,12.80
2011,03,23,15,22,12.80
2011,03,23,15,23,12.90
2011,03,23,15,24,13.00
2011,03,23,15,25,13.00
2011,03,23,15,26,13.00
2011,03,23,15,27,13.00
2011,03,23,15,28,13.00
2011,03,23,15,29,13.00
2011,03,23,15,30,13.10
2011,03,23,15,31,13.10
2011,03,23,15,32,13.10
2011,03,23,15,33,13.10
2011,03,23,15,34,13.10
2011,03,23,15,35,13.00
2011,03,23,15,36,13.00
2011,03,23,15,37,12.90
2011,03,23,15,38,12.80
2011,03,23,15,39,12.90
2011,03,23,15,40,12.90
2011,03,23,15,41,13.00
2011,03,23,15,42,13.00
2011,03,23,15,43,13.20
2011,03,23,15,44,13.20
2011,03,23,15,45,13.30
2011,03,23,15,46,13.20
2011,03,23,15,47,13.10
2011,03,23,15,48,13.10
2011,03,23,15,49,13.10
2011,03,23,15,50,13.20
2011,03,23,15,51,13.20
2011,03,23,15,52,13.20
2011,03,23,15,53,13.30
2011,03,23,15,54,13.30
2011,03,23,15,55,13.20
2011,03,23,15,56,13.10
2011,03,23,15,57,13.10
2011,03,23,15,58,13.00
2011,03,23,15,59,13.10
2011,03,23,16,00,13.10
2011,03,23,16,01,13.20
2011,03,23,16,02,13.30
2011,03,23,16,03,13.30
2011,03,23,16,04,13.30
2011,03,23,16,05,13.30
2011,03,23,16,06,13.40
2011,03,23,16,07,13.40
2011,03,23,16,08,13.40
2011,03,23,16,09,13.40
2011,03,23,16,10,13.30
2011,03,23,16,11,13.30
2011,03,23,16,12,13.30
2011,03,23,16,13,13.30
2011,03,23,16,14,13.30
2011,03,23,16,15,13.30
2011,03,23,16,16,13.20
2011,03,23,16,17,13.20
2011,03,23,16,18,13.10
2011,03,23,16,19,13.10
2011,03,23,16,20,13.10
2011,03,23,16,21,13.10
2011,03,23,16,22,13.20
2011,03,23,16,23,13.20
2011,03,23,16,24,13.30
2011,03,23,16,25,13.30
2011,03,23,16,26,13.30
2011,03,23,16,27,13.30
2011,03,23,16,28,13.30
2011,03,23,16,29,13.30
2011,03,23,16,30,13.30
2011,03,23,16,31,13.30
2011,03,23,16,32,13.40
2011,03,23,16,33,13.50
2011,03,23,16,34,13.60
2011,03,23,16,35,13.60
2011,03,23,16,36,13.50
2011,03,23,16,37,13.50
2011,03,23,16,38,13.50
2011,03,23,16,39,13.60
2011,03,23,16,40,13.70
2011,03,23,16,41,13.60
2011,03,23,16,42,13.60
2011,03,23,16,43,13.70
2011,03,23,16,44,13.70
2011,03,23,16,45,13.70
2011,03,23,16,46,13.60
2011,03,23,16,47,13.60
2011,03,23,16,48,13.50
2011,03,23,16,49,13.40
2011,03,23,16,50,13.40
2011,03,23,16,51,13.40
2011,03,23,16,52,13.40
2011,03,23,16,53,13.40
2011,03,23,16,54,13.40
2011,03,23,16,55,13.40
2011,03,23,16,56,13.40
2011,03,23,16,57,13.50
2011,03,23,16,58,13.50
2011,03,23,16,59,13.50
2011,03,23,17,00,13.50
2011,03,23,17,01,13.50
2011,03,23,17,02,13.50
2011,03,23,17,03,13.60
2011,03,23,17,04,13.60
2011,03,23,17,05,13.60
2011,03,23,17,06,13.60
2011,03,23,17,07,13.60
2011,03,23,17,08,13.50
2011,03,23,17,09,13.50
2011,03,23,17,10,13.50
2011,03,23,17,11,13.50
2011,03,23,17,12,13.50
2011,03,23,17,13,13.60
2011,03,23,17,14,13.50
2011,03,23,17,15,13.60
2011,03,23,17,16,13.60
2011,03,23,17,17,13.60
2011,03,23,17,18,13.60
2011,03,23,17,19,13.60
2011,03,23,17,20,13.60
2011,03,23,17,21,13.60
2011,03,23,17,22,13.70
2011,03,23,17,23,13.70
2011,03,23,17,24,13.70
2011,03,23,17,25,13.70
2011,03,23,17,26,13.70
2011,03,23,17,27,13.70
2011,03,23,17,28,13.70
2011,03,23,17,29,13.70
2011,03,23,17,30,13.80
2011,03,23,17,31,13.80
2011,03,23,17,32,13.80
2011,03,23,17,33,13.80
2011,03,23,17,34,13.80
2011,03,23,17,35,13.80
2011,03,23,17,36,13.90
2011,03,23,17,37,13.90
2011,03,23,17,38,14.00
2011,03,23,17,39,14.00
2011,03,23,17,40,13.90
2011,03,23,17,41,13.90
2011,03,23,17,42,13.80
2011,03,23,17,43,13.80
2011,03,23,17,44,13.80
2011,03,23,17,45,13.70
2011,03,23,17,46,13.70
2011,03,23,17,47,13.60
2011,03,23,17,48,13.60
2011,03,23,17,49,13.50
2011,03,23,17,50,13.50